FLOCK 3P-64 (42034 NORAD) Tracking and Keplerian Element Data

This shows tracking and keplerian element data for the satellite.

Feedback or suggestion? Click here.




ElementValue
Catalog42034
NameFLOCK 3P-64
Epoch Orbit25673
Epoch Day269.64309278
Epoch Year2021
RAAN335.6793
Inclination97.3124
Eccentricity0.0008902
Argument of Perigee105.1431
Mean Anonmoly255.0794
Mean Motion15.28477093
Decay Rate4.241E-05
L11 42034U 17008CQ 21269.64309278 .00004241 00000-0 15553-3 0 9991
L22 42034 97.3124 335.6793 0008902 105.1431 255.0794 15.28477093256732

Live tracking and technical data element details for FLOCK 3P-64 (NORAD 42034). FLOCK 3P-64 can be tracked NOW for your location showing map with azimuth and elevation plus other details from your city location.

Track the satellite on the map from your city or location and see movement details for azimuth, elevation, latitude, longitude, range, height, and movement on the map or in text.







IsCatalogInMostPopularTable: catalog: 42034, numindb: 560
Update: records affected: 1



GetName: 42034 FLOCK 3P-64

Hit Count: updated at: Tue, 28 Sep 2021 15:58:50 GMT